Regional Weather Roundup
Issued by NWS

Home | Current Version | Previous Version | Graphics & Text | Print | Product List | Glossary Off
Versions: 1 2 3 4 5 6 7 8 9 10 11 12 13 14 15 16 17 18 19 20 21 22 23 24 25 26 27 28 29 30 31 32 33 34 35 36 37 38 39 40 41 42 43 44 45 46 47 48 49 50

000
ASUS43 KTOP 280659
RWRKS

WEATHER ROUNDUP FOR KANSAS
NATIONAL WEATHER SERVICE GOODLAND KS
100 AM CST FRI NOV 28 2014

NOTE:  "FAIR" INDICATES FEW OR NO CLOUDS BELOW 12,000 FEET WITH NO
SIGNIFICANT WEATHER AND/OR OBSTRUCTIONS TO VISIBILITY.

KSZ001>006-013>018-027>032-041>047-280800-
NORTHWEST KANSAS

CITY           SKY/WX    TMP DP  RH WIND       PRES   REMARKS
GOODLAND       CLEAR     38  25  59 W6        30.03F
HAYS           CLEAR     36  21  55 SW9       30.01F
HILL CITY      CLEAR     40  27  59 W8        29.98F
RUSSELL        CLEAR     35  24  64 S17       29.98F WCI  25
$$

KSZ061>065-074>080-084>089-280800-
SOUTHWEST KANSAS

CITY           SKY/WX    TMP DP  RH WIND       PRES   REMARKS
DODGE CITY     CLEAR     40  26  57 SW14      30.05F WCI  32
ELKHART          N/A     42  25  51 SW9         N/A
GARDEN CITY    CLEAR     34  27  75 S7        30.04F
GREAT BEND     CLEAR     36  21  55 SW8       30.05F
LIBERAL        CLEAR     37  25  60 S8        30.07F
$$

KSZ066>073-081>083-090>101-280800-
SOUTHEAST KANSAS

CITY           SKY/WX    TMP DP  RH WIND       PRES   REMARKS
CHANUTE        CLEAR     31  24  75 SE8       30.22F
COFFEYVILLE    CLEAR     33  26  75 S8        30.23F
HUTCHINSON     CLEAR     40  25  55 S14       30.09F WCI  32
MEDICINE LODGE   N/A     35  26  69 S6        30.10F
NEWTON         CLEAR     39  21  48 S20       30.11F WCI  30
PARSONS        CLEAR     36  26  67 S6        30.23F
WICHITA INTL   PTCLDY    38  23  55 S16       30.12F WCI  29
WICHITA JABRA  CLEAR     40  23  50 S18G25    30.11F WCI  31
WINFIELD       CLEAR     42  23  46 S16       30.16F
$$

KSZ007>012-019>026-033>040-048>060-102>105-280800-
NORTHEAST KANSAS

CITY           SKY/WX    TMP DP  RH WIND       PRES   REMARKS
CONCORDIA      CLEAR     33  21  61 S9        30.02F
EMPORIA        CLEAR     30  23  75 SE12      30.15F WCI  20
LAWRENCE       CLEAR     28  22  78 SE10      30.20F WCI  19
MANHATTAN      CLEAR     34  22  61 S7        30.09F
OLATHE IND     CLEAR     30  22  72 S9        30.19F
OLATHE EXE     CLEAR     30  22  72 S10       30.20F WCI  21
SALINA         CLEAR     39  24  55 S13       30.05F WCI  31
TOPEKA BILLARD CLEAR     31  23  72 SE8       30.16F
TOPEKA FORBES  CLEAR     35  23  61 S15       30.14F WCI  25
$$


USA.gov is the U.S. government's official web portal to all federal, state and local government web resources and services.